Voltar ao catálogo

STARLINK-1166

AtivoComunicaçõesVLEO
NORAD 45060·PAYLOAD·🇺🇸 United States

Lançado Jan 29, 2020 de Cape Canaveral Space Force Station

Loading…

Próximas Passagens (próximas 24 horas)

TLE

AtualizadoSource: CelesTrak SupGP

Época: Sep 14, 2026, 21:32 UTC

1 45060C 20006S   26257.89770833  .00130370  00000+0  74068-3 0  2578
2 45060  53.0372  68.7441 0002622 286.6312  93.1216 15.78239923    19

Acompanhe STARLINK-1166 em tempo real com AllMySat

Download on the App Store